Total_Precipitation_Accumulation
0.00 0.00 0.01 0.01 0.01 0.02 0.03 0.06 0.13 0.21 0.16 0.24 0.32 0.42 0.55 0.70 0.92 0.93 0.96 0.99 1.17 1.51 1.88 2.44 2.99 3.47 4.04 4.65 5.03 4.82 4.05 3.33 2.68 2.18 1.69 1.42 1.28 1.10 0.94 0.88 0.80 0.73 0.65 0.59
0.01 0.03 0.03 0.02 0.02 0.03 0.04 0.07 0.13 0.17 0.14 0.14 0.25 0.50 0.63 0.72 0.87 0.81 0.81 0.71 0.81 1.28 1.86 2.53 3.06 3.24 3.16 3.24 3.28 2.76 2.38 2.02 1.61 1.39 1.13 0.90 0.79 0.65 0.56 0.53 0.50 0.43 0.44 0.46
0.02 0.04 0.03 0.02 0.03 0.04 0.07 0.09 0.09 0.15 0.16 0.21 0.35 0.66 0.82 0.73 0.69 0.59 0.59 0.67 1.05 1.55 1.94 2.39 2.51 2.41 2.28 2.21 2.01 1.67 1.47 1.44 1.23 1.08 0.87 0.68 0.60 0.51 0.41 0.37 0.36 0.33 0.30 0.31
0.01 0.03 0.03 0.04 0.04 0.04 0.07 0.06 0.04 0.04 0.12 0.34 0.50 0.88 1.00 0.86 0.75 0.52 0.54 0.85 1.37 1.67 1.92 1.86 1.46 1.27 1.37 1.41 1.33 1.39 1.36 1.26 1.08 0.98 0.75 0.53 0.42 0.37 0.31 0.30 0.29 0.29 0.25 0.22
0.03 0.03 0.03 0.04 0.04 0.03 0.04 0.04 0.03 0.05 0.15 0.39 0.65 1.04 1.19 0.93 0.72 0.47 0.38 0.50 0.86 1.09 1.00 0.76 0.62 0.64 0.83 1.01 1.15 1.38 1.39 1.18 0.98 0.89 0.81 0.75 0.61 0.53 0.41 0.34 0.32 0.29 0.27 0.24
0.04 0.04 0.04 0.03 0.03 0.03 0.03 0.04 0.10 0.20 0.37 0.81 0.85 0.92 1.12 0.90 0.67 0.47 0.29 0.34 0.58 0.60 0.42 0.40 0.45 0.58 0.74 0.88 0.94 1.04 1.10 1.16 1.09 1.01 0.89 0.88 0.79 0.69 0.55 0.44 0.37 0.35 0.33 0.33
0.09 0.08 0.06 0.04 0.03 0.04 0.03 0.05 0.25 0.60 0.89 0.99 0.69 0.81 1.06 0.65 0.42 0.30 0.18 0.15 0.18 0.21 0.24 0.35 0.41 0.50 0.54 0.63 0.64 0.67 0.68 0.78 0.84 0.87 0.87 0.87 0.81 0.72 0.61 0.48 0.38 0.37 0.32 0.30
0.14 0.14 0.08 0.04 0.05 0.05 0.04 0.03 0.10 0.21 0.31 0.48 0.61 0.97 0.98 0.53 0.24 0.12 0.06 0.05 0.05 0.07 0.10 0.14 0.19 0.23 0.28 0.39 0.45 0.46 0.48 0.49 0.47 0.47 0.52 0.58 0.58 0.54 0.51 0.49 0.37 0.34 0.35 0.33
0.04 0.04 0.04 0.04 0.05 0.03 0.03 0.03 0.04 0.05 0.08 0.28 0.65 0.88 0.65 0.32 0.16 0.09 0.07 0.04 0.03 0.03 0.03 0.05 0.09 0.13 0.18 0.22 0.28 0.34 0.34 0.34 0.33 0.34 0.35 0.34 0.37 0.40 0.37 0.34 0.29 0.25 0.31 0.30
0.02 0.02 0.03 0.03 0.03 0.04 0.04 0.03 0.03 0.05 0.10 0.21 0.49 0.90 0.91 0.49 0.23 0.12 0.08 0.04 0.03 0.04 0.02 0.03 0.05 0.09 0.12 0.14 0.20 0.25 0.25 0.26 0.29 0.30 0.30 0.25 0.28 0.31 0.30 0.25 0.24 0.24 0.25 0.26
0.02 0.01 0.02 0.03 0.04 0.06 0.05 0.04 0.05 0.06 0.07 0.14 0.35 0.56 0.50 0.40 0.25 0.15 0.08 0.03 0.02 0.02 0.03 0.02 0.04 0.07 0.08 0.11 0.15 0.18 0.20 0.20 0.22 0.25 0.26 0.25 0.25 0.25 0.25 0.25 0.27 0.27 0.27 0.26
0.02 0.01 0.02 0.04 0.06 0.06 0.07 0.07 0.07 0.08 0.08 0.10 0.18 0.27 0.27 0.25 0.26 0.23 0.11 0.03 0.02 0.04 0.04 0.04 0.05 0.08 0.07 0.09 0.12 0.15 0.14 0.15 0.16 0.19 0.23 0.23 0.24 0.26 0.25 0.22 0.22 0.27 0.32 0.32
0.02 0.01 0.03 0.10 0.15 0.14 0.10 0.09 0.08 0.08 0.07 0.08 0.17 0.28 0.23 0.15 0.15 0.13 0.08 0.05 0.03 0.04 0.04 0.05 0.05 0.08 0.07 0.08 0.11 0.13 0.13 0.16 0.15 0.18 0.22 0.23 0.24 0.25 0.26 0.25 0.22 0.23 0.27 0.33
0.02 0.02 0.02 0.08 0.16 0.20 0.18 0.13 0.09 0.06 0.05 0.05 0.09 0.18 0.15 0.19 0.23 0.14 0.09 0.05 0.02 0.02 0.04 0.05 0.06 0.07 0.12 0.13 0.14 0.16 0.18 0.19 0.19 0.22 0.26 0.26 0.27 0.29 0.29 0.28 0.29 0.30 0.29 0.33
0.02 0.02 0.02 0.02 0.05 0.11 0.17 0.15 0.10 0.06 0.04 0.05 0.06 0.09 0.10 0.13 0.18 0.19 0.13 0.09 0.06 0.05 0.07 0.09 0.12 0.12 0.13 0.17 0.21 0.26 0.30 0.30 0.33 0.39 0.43 0.46 0.43 0.43 0.43 0.41 0.40 0.43 0.43 0.43
0.04 0.04 0.03 0.03 0.05 0.07 0.10 0.13 0.09 0.06 0.05 0.04 0.05 0.08 0.09 0.13 0.20 0.18 0.11 0.11 0.14 0.16 0.12 0.11 0.15 0.18 0.16 0.19 0.26 0.33 0.37 0.41 0.50 0.60 0.69 0.72 0.75 0.72 0.67 0.64 0.58 0.60 0.65 0.73
0.11 0.09 0.07 0.05 0.06 0.08 0.12 0.11 0.09 0.08 0.06 0.06 0.07 0.10 0.12 0.17 0.23 0.18 0.15 0.12 0.15 0.14 0.13 0.14 0.20 0.27 0.28 0.30 0.31 0.34 0.38 0.47 0.60 0.70 0.74 0.77 0.79 0.77 0.77 0.79 0.80 0.78 0.82 0.86
0.18 0.18 0.15 0.10 0.10 0.16 0.14 0.11 0.11 0.10 0.10 0.10 0.14 0.18 0.19 0.19 0.21 0.22 0.17 0.16 0.16 0.16 0.16 0.17 0.22 0.28 0.35 0.38 0.39 0.44 0.54 0.63 0.70 0.77 0.79 0.82 0.86 0.89 0.89 0.84 0.79 0.77 0.77 0.76
0.24 0.26 0.22 0.20 0.19 0.17 0.15 0.18 0.20 0.19 0.19 0.19 0.23 0.27 0.30 0.26 0.27 0.30 0.26 0.24 0.22 0.22 0.25 0.23 0.26 0.34 0.42 0.49 0.51 0.51 0.58 0.69 0.77 0.78 0.84 0.89 0.93 0.97 0.86 0.74 0.73 0.72 0.70 0.65
0.28 0.32 0.36 0.30 0.32 0.32 0.24 0.27 0.26 0.28 0.37 0.32 0.36 0.39 0.40 0.42 0.53 0.57 0.39 0.30 0.27 0.25 0.25 0.26 0.30 0.34 0.40 0.49 0.56 0.59 0.62 0.67 0.71 0.73 0.76 0.76 0.78 0.87 0.89 0.80 0.77 0.76 0.77 0.72
0.40 0.42 0.39 0.39 0.40 0.35 0.32 0.30 0.31 0.50 0.61 0.54 0.50 0.49 0.53 0.57 0.55 0.52 0.41 0.33 0.30 0.26 0.24 0.25 0.26 0.29 0.33 0.37 0.43 0.48 0.51 0.53 0.53 0.50 0.49 0.52 0.58 0.65 0.68 0.71 0.73 0.77 0.77 0.74
0.54 0.57 0.54 0.50 0.63 0.66 0.48 0.39 0.50 0.65 0.62 0.63 0.58 0.51 0.53 0.58 0.57 0.53 0.43 0.34 0.27 0.22 0.20 0.20 0.21 0.25 0.27 0.30 0.37 0.42 0.43 0.42 0.42 0.43 0.45 0.46 0.47 0.48 0.48 0.57 0.61 0.65 0.67 0.64
0.67 0.71 0.70 0.69 0.76 0.69 0.54 0.53 0.55 0.55 0.59 0.54 0.52 0.54 0.54 0.53 0.52 0.45 0.36 0.30 0.26 0.22 0.19 0.16 0.15 0.18 0.23 0.30 0.37 0.42 0.42 0.44 0.46 0.44 0.45 0.46 0.44 0.43 0.44 0.47 0.47 0.48 0.50 0.47
0.67 0.58 0.68 0.76 0.80 0.72 0.60 0.53 0.49 0.49 0.50 0.51 0.50 0.54 0.58 0.53 0.50 0.47 0.41 0.31 0.26 0.23 0.18 0.15 0.14 0.18 0.21 0.24 0.29 0.32 0.35 0.38 0.42 0.42 0.40 0.38 0.38 0.39 0.43 0.48 0.49 0.50 0.47 0.41
0.61 0.61 0.67 0.81 0.93 0.90 0.76 0.61 0.54 0.60 0.63 0.60 0.58 0.54 0.52 0.54 0.57 0.59 0.50 0.34 0.22 0.19 0.17 0.16 0.18 0.21 0.21 0.22 0.24 0.27 0.32 0.39 0.46 0.47 0.44 0.42 0.42 0.44 0.44 0.45 0.45 0.40 0.39 0.32
0.46 0.53 0.64 0.83 0.88 0.94 0.89 0.72 0.68 0.75 0.78 0.72 0.66 0.60 0.56 0.59 0.57 0.47 0.40 0.30 0.22 0.20 0.21 0.23 0.25 0.25 0.24 0.22 0.22 0.24 0.31 0.41 0.51 0.51 0.44 0.40 0.39 0.41 0.43 0.41 0.40 0.33 0.24 0.21